Location: Caltech
(34.1382°N, 118.1253°W)
Time: 12:22:46
(UTC-07:00)

Oscar 19 - Visible Passes

Search period start: 27 August 2015 00:00
Search period end: 06 September 2015 00:00
Orbit: 775 x 790 km, 98.5° (Epoch: 26 August)

Date Brightness Start Highest point End Pass type
(mag) Time Alt. Az. Time Alt. Az. Time Alt. Az.
27 Aug 13.1 02:23:02 10° NNE 02:24:18 18° NNE 02:24:18 18° NNE visible
28 Aug 13.5 01:51:36 10° NNE 01:52:06 13° NNE 01:52:06 13° NNE visible
28 Aug 13.0 03:31:44 10° NNW 03:32:39 14° NNW 03:32:39 14° NNW visible
29 Aug 12.9 02:59:11 10° N 03:00:27 17° N 03:00:27 17° N visible
30 Aug 13.2 02:27:12 10° NNE 02:28:15 16° NNE 02:28:15 16° NNE visible
31 Aug 13.5 01:55:42 10° NNE 01:56:03 12° NNE 01:56:03 12° NNE visible
31 Aug 13.1 03:36:06 10° NNW 03:36:36 12° NNW 03:36:36 12° NNW visible
01 Sep 13.1 03:03:26 10° N 03:04:24 15° N 03:04:24 15° N visible
02 Sep 13.3 02:31:23 10° N 02:32:12 15° N 02:32:12 15° N visible
03 Sep 13.6 01:59:49 10° NNE 02:00:00 11° NNE 02:00:00 11° NNE visible
03 Sep 13.2 03:40:29 10° NNW 03:40:33 10° NNW 03:40:33 10° NNW visible
04 Sep 13.2 03:07:41 10° N 03:08:21 13° N 03:08:21 13° N visible
05 Sep 13.4 02:35:35 10° N 02:36:08 13° N 02:36:08 13° N visible
